User: anonymous   Login
Location: Unspecified
(0.0000°N, 0.0000°E)
Time: 22:12:59
(UTC+00:00)
Language:

STARLINK-4729 - Orbit

View from above orbital plane
View from above orbital plane
View from above satellite
View from above satellite

Ground track
Ground track

The orbit is defined by the following mean orbital elements,

1 53804U          26145.35721800 +.00000000 +00000-0 -19523-5 0 00003
2 53804  53.2131 274.7298 0001046 108.9348 251.1758 15.08838125    00
Epoch (UTC): 25 May 2026 08:34:23
Eccentricity: 0.0001046
inclination: 53.2131°
perigee height: 539 km
apogee height: 540 km
right ascension of ascending node: 274.7298°
argument of perigee: 108.9348°
revolutions per day: 15.08838125
mean anomaly at epoch: 251.1758°

The dashed part of the orbit path shows where the satellite is in the earth's shadow,  

DLR